This is the latest recevied weather packets stored in our database for station/object IT9CNT. If no packets are shown the sender has not sent any weather packets the latest 1 day(s).
| Time | Temp. | Humidity | Pressure | Rain* | Wind** | Luminosity | Snow |
|---|---|---|---|---|---|---|---|
| 1777999263 | 17.78° C | 81% | 1012.9 hPa | 0 mm | 1.34 m/s, 162° | - | - |
| 1777999203 | 17.78° C | 82% | 1013 hPa | 0 mm | 1.34 m/s, 159° | - | - |
| 1777999143 | 17.78° C | 82% | 1012.9 hPa | 0 mm | 1.34 m/s, 153° | - | - |
| 1777999083 | 17.78° C | 82% | 1013 hPa | 0 mm | 1.79 m/s, 149° | - | - |
| 1777999023 | 17.78° C | 82% | 1012.9 hPa | 0 mm | 1.79 m/s, 153° | - | - |
| 1777998963 | 17.78° C | 82% | 1013 hPa | 0 mm | 1.79 m/s, 154° | - | - |
| 1777998903 | 17.78° C | 82% | 1012.8 hPa | 0 mm | 1.79 m/s, 151° | - | - |
| 1777998843 | 17.78° C | 82% | 1013 hPa | 0 mm | 1.79 m/s, 152° | - | - |
| 1777998783 | 17.78° C | 82% | 1012.8 hPa | 0 mm | 1.79 m/s, 151° | - | - |
| 1777998723 | 17.78° C | 82% | 1012.9 hPa | 0 mm | 1.79 m/s, 150° | - | - |
| 1777998663 | 17.78° C | 82% | 1012.9 hPa | 0 mm | 1.79 m/s, 148° | - | - |
| 1777998603 | 17.78° C | 82% | 1013.2 hPa | 0 mm | 1.79 m/s, 151° | - | - |
| 1777998543 | 17.78° C | 82% | 1013 hPa | 0 mm | 1.79 m/s, 155° | - | - |
| 1777998483 | 17.78° C | 82% | 1012.8 hPa | 0 mm | 1.79 m/s, 159° | - | - |
| 1777998423 | 17.78° C | 82% | 1012.9 hPa | 0 mm | 1.79 m/s, 162° | - | - |
| 1777998363 | 17.78° C | 82% | 1012.9 hPa | 0 mm | 1.79 m/s, 158° | - | - |
| 1777998303 | 17.78° C | 82% | 1012.9 hPa | 0 mm | 2.24 m/s, 148° | - | - |
| 1777998243 | 17.78° C | 81% | 1012.9 hPa | 0 mm | 2.24 m/s, 133° | - | - |
| 1777998183 | 17.78° C | 82% | 1012.9 hPa | 0 mm | 2.24 m/s, 136° | - | - |
| 1777998123 | 17.78° C | 82% | 1012.9 hPa | 0 mm | 2.24 m/s, 134° | - | - |
| 1777998063 | 17.78° C | 81% | 1012.9 hPa | 0 mm | 2.24 m/s, 133° | - | - |
| 1777998003 | 17.78° C | 82% | 1013 hPa | 0 mm | 2.24 m/s, 132° | - | - |
| 1777997943 | 17.78° C | 82% | 1013.2 hPa | 0 mm | 2.24 m/s, 135° | - | - |
| 1777997883 | 17.78° C | 82% | 1013 hPa | 0 mm | 2.24 m/s, 142° | - | - |
| 1777997823 | 17.78° C | 82% | 1013 hPa | 0 mm | 2.24 m/s, 143° | - | - |
* Rain latest hour (hover to see other rain measurements)
** Current wind speed in m/s (hover to see current wind gust speed)